Simultaneous Nadir Overpasses (SNOs) Predictions

Prediction of SNOs between AQUA and NPP Satellite Orbit:

Table of predicted SNOs for the next 14.0 days since TLE Epoch: 8/30/2019
Index Date (AQUA) Time (AQUA) Lat,Lon (AQUA) SZA (AQUA ) Date (NPP) Time (NPP) Lat,Lon (NPP) SZA (NPP ) Distance(km) Time Diff (sec)
1 08/31/2019 21:48:53 -74.89, -91.27 89.83 08/31/2019 21:48:33 -74.88, -91.35 89.79 2.26 20
2 08/31/2019 22:37:53 76.18, 80.07 88.72 08/31/2019 22:38:49 76.18, 80.06 88.67 0.20 56
3 09/03/2019 13:16:09 74.16,-144.81 91.87 09/03/2019 13:14:57 74.16,-144.80 91.93 0.31 72
4 09/03/2019 14:05:14 -75.29, 25.66 89.37 09/03/2019 14:05:20 -75.28, 25.58 89.35 2.49 6
5 09/06/2019 05:32:28 74.66, -27.73 92.24 09/06/2019 05:31:42 74.66, -27.72 92.28 0.40 46
6 09/06/2019 06:21:35 -75.67, 142.63 88.88 09/06/2019 06:22:07 -75.67, 142.55 88.89 2.37 32
7 09/08/2019 21:48:46 75.15, 89.41 92.63 09/08/2019 21:48:26 75.15, 89.44 92.64 0.92 20
8 09/08/2019 22:37:55 -76.05,-100.35 88.38 09/08/2019 22:38:53 -76.05,-100.41 88.42 1.90 58
9 09/11/2019 13:16:11 -74.02, 34.88 85.22 09/11/2019 13:15:01 -74.02, 34.85 85.15 0.89 70
10 09/11/2019 14:05:05 75.62,-153.38 93.04 09/11/2019 14:05:11 75.63,-153.32 93.01 1.87 6




NCC Satellite Simultaneous Nadir Overpasses (SNOs) Prediction Service
